KINEIS-3C

Last updated on Sun Apr 12 2026 00:02:47 GMT+0000 (Coordinated Universal Time)

1 61220U 24172A 26101.53839148 .00001697 00000+0 27611-3 0 9990 2 61220 98.0340 192.1545 0002238 41.6946 318.4431 14.72348022 83265
UTC large
Height (km)
Speed (km/s)
/
Latitude / Longitude
Inclination (degrees)
Orbital Period (minutes)
Azimuth
Elevation
Range (km)
Doppler Factor

Next 0 passes for location: London (51.5072 / 0.1276)

Sorry there are no passes over London.
KINEIS-3C